Tracking 18984 objects as of 24-Feb-2018
HD Live streaming from Space Station
objects crossing your sky now

ATLAS CENTAUR R/B

Track ATLAS CENTAUR R/B now!


NORAD ID: 10976
Int'l Code: 1978-068B
Perigee: 660.5 km
Apogee: 36,195.0 km
Inclination: 21.5 °
Period: 647.7 minutes
Semi major axis: 24798 km
RCS: 16.8333 m2 (large)
Launch date: June 29, 1978
Source: United States (US)
Launch site: AIR FORCE EASTERN TEST RANGE (AFETR)

Note: This is a ROCKET BODY
aabbcc
Your satellite tracking list
Your tracking list is empty




NASA's NSSDC Master Catalog

Two Line Element Set (TLE):
1 10976U 78068B   18054.48475097 -.00000232  00000-0 -14490-3 0  9994
2 10976  21.5049 114.9552 7164587  53.9374   8.5354  2.22309563321847
Source of the keplerian elements: AFSPC